owner,sensor,date,latitude,longitude,relative_humidity,qcFlag 
DISL,ioos:station:DISL:MBLA:1,2015-08-01T00:00:00Z,30.4367,-88.0117,81.2,1111122 
DISL,ioos:station:DISL:MBLA:1,2015-08-01T00:30:00Z,30.4367,-88.0117,80.9,1111122 
DISL,ioos:station:DISL:MBLA:1,2015-08-01T01:00:00Z,30.4367,-88.0117,80.3,1111122 
DISL,ioos:station:DISL:MBLA:1,2015-08-01T01:30:00Z,30.4367,-88.0117,80.4,1111122 
DISL,ioos:station:DISL:MBLA:1,2015-08-01T02:00:00Z,30.4367,-88.0117,80.2,1111122 
DISL,ioos:station:DISL:MBLA:1,2015-08-01T02:30:00Z,30.4367,-88.0117,78.06,1111122 
DISL,ioos:station:DISL:MBLA:1,2015-08-01T03:00:00Z,30.4367,-88.0117,76.37,1111122 
DISL,ioos:station:DISL:MBLA:1,2015-08-01T03:30:00Z,30.4367,-88.0117,76.06,1111122 
DISL,ioos:station:DISL:MBLA:1,2015-08-01T04:00:00Z,30.4367,-88.0117,75.11,1111122 
DISL,ioos:station:DISL:MBLA:1,2015-08-01T04:30:00Z,30.4367,-88.0117,67.86,1111122 
DISL,ioos:station:DISL:MBLA:1,2015-08-01T05:00:00Z,30.4367,-88.0117,53.02,1111122 
DISL,ioos:station:DISL:MBLA:1,2015-08-01T05:30:00Z,30.4367,-88.0117,56.72,1111122 
DISL,ioos:station:DISL:MBLA:1,2015-08-01T06:00:00Z,30.4367,-88.0117,58.65,1111122 
DISL,ioos:station:DISL:MBLA:1,2015-08-01T06:30:00Z,30.4367,-88.0117,59.12,1111122 
DISL,ioos:station:DISL:MBLA:1,2015-08-01T07:00:00Z,30.4367,-88.0117,57.36,1111122 
DISL,ioos:station:DISL:MBLA:1,2015-08-01T07:30:00Z,30.4367,-88.0117,55.5,1111122 
DISL,ioos:station:DISL:MBLA:1,2015-08-01T08:00:00Z,30.4367,-88.0117,57.6,1111122 
DISL,ioos:station:DISL:MBLA:1,2015-08-01T08:30:00Z,30.4367,-88.0117,58.17,1111122 
DISL,ioos:station:DISL:MBLA:1,2015-08-01T09:00:00Z,30.4367,-88.0117,60.75,1111122 
DISL,ioos:station:DISL:MBLA:1,2015-08-01T09:30:00Z,30.4367,-88.0117,63.73,1111122 
DISL,ioos:station:DISL:MBLA:1,2015-08-01T10:00:00Z,30.4367,-88.0117,67.59,1111122 
DISL,ioos:station:DISL:MBLA:1,2015-08-01T10:30:00Z,30.4367,-88.0117,69.42,1111122 
DISL,ioos:station:DISL:MBLA:1,2015-08-01T11:00:00Z,30.4367,-88.0117,68.59,1111122 
DISL,ioos:station:DISL:MBLA:1,2015-08-01T11:30:00Z,30.4367,-88.0117,72.87,1111122 
DISL,ioos:station:DISL:MBLA:1,2015-08-01T12:00:00Z,30.4367,-88.0117,73.58,1111122 
DISL,ioos:station:DISL:MBLA:1,2015-08-01T12:30:00Z,30.4367,-88.0117,76.59,1111122 
DISL,ioos:station:DISL:MBLA:1,2015-08-01T13:00:00Z,30.4367,-88.0117,79.36,1111122 
DISL,ioos:station:DISL:MBLA:1,2015-08-01T13:30:00Z,30.4367,-88.0117,79.01,1111122 
DISL,ioos:station:DISL:MBLA:1,2015-08-01T14:00:00Z,30.4367,-88.0117,79.59,1111122 
DISL,ioos:station:DISL:MBLA:1,2015-08-01T14:30:00Z,30.4367,-88.0117,76.98,1111122 
DISL,ioos:station:DISL:MBLA:1,2015-08-01T15:00:00Z,30.4367,-88.0117,75.11,1111122 
DISL,ioos:station:DISL:MBLA:1,2015-08-01T15:30:00Z,30.4367,-88.0117,74.98,1111122 
DISL,ioos:station:DISL:MBLA:1,2015-08-01T16:00:00Z,30.4367,-88.0117,72.27,1111122 
DISL,ioos:station:DISL:MBLA:1,2015-08-01T16:30:00Z,30.4367,-88.0117,69.69,1111122 
DISL,ioos:station:DISL:MBLA:1,2015-08-01T17:00:00Z,30.4367,-88.0117,69.29,1111122 
DISL,ioos:station:DISL:MBLA:1,2015-08-01T17:30:00Z,30.4367,-88.0117,67.02,1111122 
DISL,ioos:station:DISL:MBLA:1,2015-08-01T18:00:00Z,30.4367,-88.0117,65.92,1111122 
DISL,ioos:station:DISL:MBLA:1,2015-08-01T18:30:00Z,30.4367,-88.0117,65.75,1111122 
DISL,ioos:station:DISL:MBLA:1,2015-08-01T19:00:00Z,30.4367,-88.0117,60.66,1111122 
DISL,ioos:station:DISL:MBLA:1,2015-08-01T19:30:00Z,30.4367,-88.0117,61.51,1111122 
DISL,ioos:station:DISL:MBLA:1,2015-08-01T20:00:00Z,30.4367,-88.0117,58.63,1111122 
DISL,ioos:station:DISL:MBLA:1,2015-08-01T20:30:00Z,30.4367,-88.0117,56.43,1111122 
DISL,ioos:station:DISL:MBLA:1,2015-08-01T21:00:00Z,30.4367,-88.0117,55.28,1111122 
DISL,ioos:station:DISL:MBLA:1,2015-08-01T21:30:00Z,30.4367,-88.0117,69.53,1111122 
DISL,ioos:station:DISL:MBLA:1,2015-08-01T22:00:00Z,30.4367,-88.0117,74.51,1111122 
DISL,ioos:station:DISL:MBLA:1,2015-08-01T22:30:00Z,30.4367,-88.0117,73.23,1111122 
DISL,ioos:station:DISL:MBLA:1,2015-08-01T23:00:00Z,30.4367,-88.0117,64.59,1111122 
DISL,ioos:station:DISL:MBLA:1,2015-08-01T23:30:00Z,30.4367,-88.0117,67.6,1111122 
DISL,ioos:station:DISL:MBLA:1,2015-08-02T00:00:00Z,30.4367,-88.0117,59.17,1111122 
DISL,ioos:station:DISL:MBLA:1,2015-08-02T00:30:00Z,30.4367,-88.0117,60.29,1111122 
DISL,ioos:station:DISL:MBLA:1,2015-08-02T01:00:00Z,30.4367,-88.0117,69.2,1111122 
DISL,ioos:station:DISL:MBLA:1,2015-08-02T01:30:00Z,30.4367,-88.0117,75.81,1111122 
DISL,ioos:station:DISL:MBLA:1,2015-08-02T02:00:00Z,30.4367,-88.0117,62.74,1111122 
DISL,ioos:station:DISL:MBLA:1,2015-08-02T02:30:00Z,30.4367,-88.0117,60.44,1111122 
DISL,ioos:station:DISL:MBLA:1,2015-08-02T03:00:00Z,30.4367,-88.0117,58.21,1111122 
DISL,ioos:station:DISL:MBLA:1,2015-08-02T03:30:00Z,30.4367,-88.0117,55.12,1111122 
DISL,ioos:station:DISL:MBLA:1,2015-08-02T04:00:00Z,30.4367,-88.0117,56.11,1111122 
DISL,ioos:station:DISL:MBLA:1,2015-08-02T04:30:00Z,30.4367,-88.0117,59.46,1111122 
DISL,ioos:station:DISL:MBLA:1,2015-08-02T05:00:00Z,30.4367,-88.0117,60.55,1111122 
DISL,ioos:station:DISL:MBLA:1,2015-08-02T05:30:00Z,30.4367,-88.0117,60.65,1111122 
DISL,ioos:station:DISL:MBLA:1,2015-08-02T06:00:00Z,30.4367,-88.0117,62.82,1111122 
DISL,ioos:station:DISL:MBLA:1,2015-08-02T06:30:00Z,30.4367,-88.0117,63.09,1111122 
DISL,ioos:station:DISL:MBLA:1,2015-08-02T07:00:00Z,30.4367,-88.0117,64.71,1111122 
DISL,ioos:station:DISL:MBLA:1,2015-08-02T07:30:00Z,30.4367,-88.0117,66.34,1111122 
DISL,ioos:station:DISL:MBLA:1,2015-08-02T08:00:00Z,30.4367,-88.0117,68.58,1111122 
DISL,ioos:station:DISL:MBLA:1,2015-08-02T08:30:00Z,30.4367,-88.0117,67.08,1111122 
DISL,ioos:station:DISL:MBLA:1,2015-08-02T09:00:00Z,30.4367,-88.0117,72.81,1111122 
DISL,ioos:station:DISL:MBLA:1,2015-08-02T09:30:00Z,30.4367,-88.0117,75.89,1111122 
DISL,ioos:station:DISL:MBLA:1,2015-08-02T10:00:00Z,30.4367,-88.0117,74.54,1111122 
DISL,ioos:station:DISL:MBLA:1,2015-08-02T10:30:00Z,30.4367,-88.0117,75.59,1111122 
DISL,ioos:station:DISL:MBLA:1,2015-08-02T11:00:00Z,30.4367,-88.0117,73.18,1111122 
DISL,ioos:station:DISL:MBLA:1,2015-08-02T11:30:00Z,30.4367,-88.0117,79.42,1111122 
DISL,ioos:station:DISL:MBLA:1,2015-08-02T12:00:00Z,30.4367,-88.0117,77.32,1111122 
DISL,ioos:station:DISL:MBLA:1,2015-08-02T12:30:00Z,30.4367,-88.0117,74.95,1111122 
DISL,ioos:station:DISL:MBLA:1,2015-08-02T13:00:00Z,30.4367,-88.0117,72.2,1111122 
DISL,ioos:station:DISL:MBLA:1,2015-08-02T13:30:00Z,30.4367,-88.0117,71.39,1111122 
DISL,ioos:station:DISL:MBLA:1,2015-08-02T14:00:00Z,30.4367,-88.0117,73.15,1111122 
DISL,ioos:station:DISL:MBLA:1,2015-08-02T14:30:00Z,30.4367,-88.0117,74.91,1111122 
DISL,ioos:station:DISL:MBLA:1,2015-08-02T15:00:00Z,30.4367,-88.0117,74.67,1111122 
DISL,ioos:station:DISL:MBLA:1,2015-08-02T15:30:00Z,30.4367,-88.0117,73.28,1111122 
DISL,ioos:station:DISL:MBLA:1,2015-08-02T16:00:00Z,30.4367,-88.0117,72.09,1111122 
DISL,ioos:station:DISL:MBLA:1,2015-08-02T16:30:00Z,30.4367,-88.0117,71.1,1111122 
DISL,ioos:station:DISL:MBLA:1,2015-08-02T17:00:00Z,30.4367,-88.0117,67.04,1111122 
DISL,ioos:station:DISL:MBLA:1,2015-08-02T17:30:00Z,30.4367,-88.0117,63.81,1111122 
DISL,ioos:station:DISL:MBLA:1,2015-08-02T18:00:00Z,30.4367,-88.0117,59.51,1111122 
DISL,ioos:station:DISL:MBLA:1,2015-08-02T18:30:00Z,30.4367,-88.0117,61.07,1111122 
DISL,ioos:station:DISL:MBLA:1,2015-08-02T19:00:00Z,30.4367,-88.0117,58.46,1111122 
DISL,ioos:station:DISL:MBLA:1,2015-08-02T19:30:00Z,30.4367,-88.0117,63.07,1111122 
DISL,ioos:station:DISL:MBLA:1,2015-08-02T20:00:00Z,30.4367,-88.0117,63.47,1111122 
DISL,ioos:station:DISL:MBLA:1,2015-08-02T20:30:00Z,30.4367,-88.0117,66.15,1111122 
DISL,ioos:station:DISL:MBLA:1,2015-08-02T21:00:00Z,30.4367,-88.0117,68.69,1111122 
DISL,ioos:station:DISL:MBLA:1,2015-08-02T21:30:00Z,30.4367,-88.0117,71.6,1111122 
DISL,ioos:station:DISL:MBLA:1,2015-08-02T22:00:00Z,30.4367,-88.0117,69.81,1111122 
DISL,ioos:station:DISL:MBLA:1,2015-08-02T22:30:00Z,30.4367,-88.0117,71.46,1111122 
DISL,ioos:station:DISL:MBLA:1,2015-08-02T23:00:00Z,30.4367,-88.0117,69.67,1111122 
DISL,ioos:station:DISL:MBLA:1,2015-08-02T23:30:00Z,30.4367,-88.0117,69.67,1111122 
DISL,ioos:station:DISL:MBLA:1,2015-08-03T00:00:00Z,30.4367,-88.0117,68.62,1111122 
DISL,ioos:station:DISL:MBLA:1,2015-08-03T00:30:00Z,30.4367,-88.0117,66.96,1111122 
DISL,ioos:station:DISL:MBLA:1,2015-08-03T01:00:00Z,30.4367,-88.0117,72.59,1111122 
DISL,ioos:station:DISL:MBLA:1,2015-08-03T01:30:00Z,30.4367,-88.0117,73.1,1111122 
DISL,ioos:station:DISL:MBLA:1,2015-08-03T02:00:00Z,30.4367,-88.0117,72.7,1111122 
DISL,ioos:station:DISL:MBLA:1,2015-08-03T02:30:00Z,30.4367,-88.0117,74.2,1111122 
DISL,ioos:station:DISL:MBLA:1,2015-08-03T03:00:00Z,30.4367,-88.0117,72.95,1111122 
DISL,ioos:station:DISL:MBLA:1,2015-08-03T03:30:00Z,30.4367,-88.0117,77.99,1111122 
DISL,ioos:station:DISL:MBLA:1,2015-08-03T04:00:00Z,30.4367,-88.0117,76.81,1111122 
DISL,ioos:station:DISL:MBLA:1,2015-08-03T04:30:00Z,30.4367,-88.0117,76.23,1111122 
DISL,ioos:station:DISL:MBLA:1,2015-08-03T05:00:00Z,30.4367,-88.0117,76.84,1111122 
DISL,ioos:station:DISL:MBLA:1,2015-08-03T05:30:00Z,30.4367,-88.0117,71.83,1111122 
DISL,ioos:station:DISL:MBLA:1,2015-08-03T06:00:00Z,30.4367,-88.0117,70.85,1111122 
DISL,ioos:station:DISL:MBLA:1,2015-08-03T06:30:00Z,30.4367,-88.0117,72.61,1111122 
DISL,ioos:station:DISL:MBLA:1,2015-08-03T07:00:00Z,30.4367,-88.0117,73.86,1111122 
DISL,ioos:station:DISL:MBLA:1,2015-08-03T07:30:00Z,30.4367,-88.0117,78.5,1111122 
DISL,ioos:station:DISL:MBLA:1,2015-08-03T08:00:00Z,30.4367,-88.0117,75.79,1111122 
DISL,ioos:station:DISL:MBLA:1,2015-08-03T08:30:00Z,30.4367,-88.0117,77.32,1111122 
DISL,ioos:station:DISL:MBLA:1,2015-08-03T09:00:00Z,30.4367,-88.0117,77.86,1111122 
DISL,ioos:station:DISL:MBLA:1,2015-08-03T09:30:00Z,30.4367,-88.0117,79.72,1111122 
DISL,ioos:station:DISL:MBLA:1,2015-08-03T10:00:00Z,30.4367,-88.0117,80.7,1111122 
DISL,ioos:station:DISL:MBLA:1,2015-08-03T10:30:00Z,30.4367,-88.0117,78.71,1111122 
DISL,ioos:station:DISL:MBLA:1,2015-08-03T11:00:00Z,30.4367,-88.0117,77.08,1111122 
DISL,ioos:station:DISL:MBLA:1,2015-08-03T11:30:00Z,30.4367,-88.0117,68.27,1111122 
DISL,ioos:station:DISL:MBLA:1,2015-08-03T12:00:00Z,30.4367,-88.0117,68.54,1111122 
DISL,ioos:station:DISL:MBLA:1,2015-08-03T12:30:00Z,30.4367,-88.0117,69.52,1111122 
DISL,ioos:station:DISL:MBLA:1,2015-08-03T13:00:00Z,30.4367,-88.0117,60.51,1111122 
DISL,ioos:station:DISL:MBLA:1,2015-08-03T13:30:00Z,30.4367,-88.0117,61.6,1111122 
DISL,ioos:station:DISL:MBLA:1,2015-08-03T14:00:00Z,30.4367,-88.0117,61.22,1111122 
DISL,ioos:station:DISL:MBLA:1,2015-08-03T14:30:00Z,30.4367,-88.0117,60.81,1111122 
DISL,ioos:station:DISL:MBLA:1,2015-08-03T15:00:00Z,30.4367,-88.0117,60.26,1111122 
DISL,ioos:station:DISL:MBLA:1,2015-08-03T15:30:00Z,30.4367,-88.0117,61.82,1111122 
DISL,ioos:station:DISL:MBLA:1,2015-08-03T16:00:00Z,30.4367,-88.0117,63.54,1111122 
DISL,ioos:station:DISL:MBLA:1,2015-08-03T16:30:00Z,30.4367,-88.0117,63.64,1111122 
DISL,ioos:station:DISL:MBLA:1,2015-08-03T17:00:00Z,30.4367,-88.0117,61.17,1111122 
DISL,ioos:station:DISL:MBLA:1,2015-08-03T17:30:00Z,30.4367,-88.0117,50.43,1111122 
DISL,ioos:station:DISL:MBLA:1,2015-08-03T18:00:00Z,30.4367,-88.0117,43.86,1111122 
DISL,ioos:station:DISL:MBLA:1,2015-08-03T18:30:00Z,30.4367,-88.0117,46.54,1111122 
DISL,ioos:station:DISL:MBLA:1,2015-08-03T19:00:00Z,30.4367,-88.0117,38.98,1111122 
DISL,ioos:station:DISL:MBLA:1,2015-08-03T19:30:00Z,30.4367,-88.0117,63.84,1111122 
DISL,ioos:station:DISL:MBLA:1,2015-08-03T20:00:00Z,30.4367,-88.0117,65.47,1111122 
DISL,ioos:station:DISL:MBLA:1,2015-08-03T20:30:00Z,30.4367,-88.0117,67.94,1111122 
DISL,ioos:station:DISL:MBLA:1,2015-08-03T21:00:00Z,30.4367,-88.0117,71.53,1111122 
DISL,ioos:station:DISL:MBLA:1,2015-08-03T21:30:00Z,30.4367,-88.0117,64.49,1111122 
DISL,ioos:station:DISL:MBLA:1,2015-08-03T22:00:00Z,30.4367,-88.0117,67.03,1111122 
DISL,ioos:station:DISL:MBLA:1,2015-08-03T22:30:00Z,30.4367,-88.0117,72.14,1111122 
DISL,ioos:station:DISL:MBLA:1,2015-08-03T23:00:00Z,30.4367,-88.0117,65.81,1111122 
DISL,ioos:station:DISL:MBLA:1,2015-08-03T23:30:00Z,30.4367,-88.0117,70.69,1111122 
DISL,ioos:station:DISL:MBLA:1,2015-08-04T00:00:00Z,30.4367,-88.0117,69.94,1111122 
DISL,ioos:station:DISL:MBLA:1,2015-08-04T00:30:00Z,30.4367,-88.0117,69.37,1111122 
DISL,ioos:station:DISL:MBLA:1,2015-08-04T01:00:00Z,30.4367,-88.0117,73.88,1111122 
DISL,ioos:station:DISL:MBLA:1,2015-08-04T01:30:00Z,30.4367,-88.0117,77.52,1111122 
DISL,ioos:station:DISL:MBLA:1,2015-08-04T02:00:00Z,30.4367,-88.0117,76.13,1111122 
DISL,ioos:station:DISL:MBLA:1,2015-08-04T02:30:00Z,30.4367,-88.0117,74.06,1111122 
DISL,ioos:station:DISL:MBLA:1,2015-08-04T03:00:00Z,30.4367,-88.0117,76.57,1111122 
DISL,ioos:station:DISL:MBLA:1,2015-08-04T03:30:00Z,30.4367,-88.0117,79.28,1111122 
DISL,ioos:station:DISL:MBLA:1,2015-08-04T04:00:00Z,30.4367,-88.0117,78.74,1111122 
DISL,ioos:station:DISL:MBLA:1,2015-08-04T04:30:00Z,30.4367,-88.0117,78.4,1111122 
DISL,ioos:station:DISL:MBLA:1,2015-08-04T05:00:00Z,30.4367,-88.0117,77.76,1111122 
DISL,ioos:station:DISL:MBLA:1,2015-08-04T05:30:00Z,30.4367,-88.0117,78.23,1111122 
DISL,ioos:station:DISL:MBLA:1,2015-08-04T06:00:00Z,30.4367,-88.0117,75.18,1111122 
DISL,ioos:station:DISL:MBLA:1,2015-08-04T06:30:00Z,30.4367,-88.0117,78.03,1111122 
DISL,ioos:station:DISL:MBLA:1,2015-08-04T07:00:00Z,30.4367,-88.0117,79.69,1111122 
DISL,ioos:station:DISL:MBLA:1,2015-08-04T07:30:00Z,30.4367,-88.0117,83.1,1111122 
DISL,ioos:station:DISL:MBLA:1,2015-08-04T08:00:00Z,30.4367,-88.0117,83.3,1111122 
DISL,ioos:station:DISL:MBLA:1,2015-08-04T08:30:00Z,30.4367,-88.0117,81.6,1111122 
DISL,ioos:station:DISL:MBLA:1,2015-08-04T09:00:00Z,30.4367,-88.0117,82.5,1111122 
DISL,ioos:station:DISL:MBLA:1,2015-08-04T09:30:00Z,30.4367,-88.0117,81.9,1111122 
DISL,ioos:station:DISL:MBLA:1,2015-08-04T10:00:00Z,30.4367,-88.0117,81.0,1111122 
DISL,ioos:station:DISL:MBLA:1,2015-08-04T10:30:00Z,30.4367,-88.0117,80.2,1111122 
DISL,ioos:station:DISL:MBLA:1,2015-08-04T11:00:00Z,30.4367,-88.0117,79.62,1111122 
DISL,ioos:station:DISL:MBLA:1,2015-08-04T11:30:00Z,30.4367,-88.0117,76.57,1111122 
DISL,ioos:station:DISL:MBLA:1,2015-08-04T12:00:00Z,30.4367,-88.0117,72.71,1111122 
DISL,ioos:station:DISL:MBLA:1,2015-08-04T12:30:00Z,30.4367,-88.0117,70.07,1111122 
DISL,ioos:station:DISL:MBLA:1,2015-08-04T13:00:00Z,30.4367,-88.0117,72.4,1111122 
DISL,ioos:station:DISL:MBLA:1,2015-08-04T13:30:00Z,30.4367,-88.0117,72.1,1111122 
DISL,ioos:station:DISL:MBLA:1,2015-08-04T14:00:00Z,30.4367,-88.0117,71.99,1111122 
DISL,ioos:station:DISL:MBLA:1,2015-08-04T14:30:00Z,30.4367,-88.0117,67.34,1111122 
DISL,ioos:station:DISL:MBLA:1,2015-08-04T15:00:00Z,30.4367,-88.0117,63.13,1111122 
DISL,ioos:station:DISL:MBLA:1,2015-08-04T15:30:00Z,30.4367,-88.0117,68.86,1111122 
DISL,ioos:station:DISL:MBLA:1,2015-08-04T16:00:00Z,30.4367,-88.0117,71.02,1111122 
DISL,ioos:station:DISL:MBLA:1,2015-08-04T16:30:00Z,30.4367,-88.0117,72.72,1111122 
DISL,ioos:station:DISL:MBLA:1,2015-08-04T17:00:00Z,30.4367,-88.0117,73.53,1111122 
DISL,ioos:station:DISL:MBLA:1,2015-08-04T17:30:00Z,30.4367,-88.0117,68.55,1111122 
DISL,ioos:station:DISL:MBLA:1,2015-08-04T18:00:00Z,30.4367,-88.0117,74.07,1111122 
DISL,ioos:station:DISL:MBLA:1,2015-08-04T18:30:00Z,30.4367,-88.0117,74.99,1111122 
DISL,ioos:station:DISL:MBLA:1,2015-08-04T19:00:00Z,30.4367,-88.0117,77.19,1111122 
DISL,ioos:station:DISL:MBLA:1,2015-08-04T19:30:00Z,30.4367,-88.0117,70.76,1111122 
DISL,ioos:station:DISL:MBLA:1,2015-08-04T20:00:00Z,30.4367,-88.0117,73.95,1111122 
DISL,ioos:station:DISL:MBLA:1,2015-08-04T20:30:00Z,30.4367,-88.0117,70.26,1111122 
DISL,ioos:station:DISL:MBLA:1,2015-08-04T21:00:00Z,30.4367,-88.0117,71.51,1111122 
DISL,ioos:station:DISL:MBLA:1,2015-08-04T21:30:00Z,30.4367,-88.0117,71.44,1111122 
DISL,ioos:station:DISL:MBLA:1,2015-08-04T22:00:00Z,30.4367,-88.0117,70.25,1111122 
DISL,ioos:station:DISL:MBLA:1,2015-08-04T22:30:00Z,30.4367,-88.0117,67.13,1111122 
DISL,ioos:station:DISL:MBLA:1,2015-08-04T23:00:00Z,30.4367,-88.0117,66.89,1111122 
DISL,ioos:station:DISL:MBLA:1,2015-08-04T23:30:00Z,30.4367,-88.0117,68.72,1111122 
DISL,ioos:station:DISL:MBLA:1,2015-08-05T00:00:00Z,30.4367,-88.0117,70.32,1111122 
DISL,ioos:station:DISL:MBLA:1,2015-08-05T00:30:00Z,30.4367,-88.0117,69.38,1111122 
DISL,ioos:station:DISL:MBLA:1,2015-08-05T01:00:00Z,30.4367,-88.0117,68.91,1111122 
DISL,ioos:station:DISL:MBLA:1,2015-08-05T01:30:00Z,30.4367,-88.0117,69.39,1111122 
DISL,ioos:station:DISL:MBLA:1,2015-08-05T02:00:00Z,30.4367,-88.0117,76.91,1111122 
DISL,ioos:station:DISL:MBLA:1,2015-08-05T02:30:00Z,30.4367,-88.0117,72.13,1111122 
DISL,ioos:station:DISL:MBLA:1,2015-08-05T03:00:00Z,30.4367,-88.0117,71.83,1111122 
DISL,ioos:station:DISL:MBLA:1,2015-08-05T03:30:00Z,30.4367,-88.0117,73.18,1111122 
DISL,ioos:station:DISL:MBLA:1,2015-08-05T04:00:00Z,30.4367,-88.0117,75.11,1111122 
DISL,ioos:station:DISL:MBLA:1,2015-08-05T04:30:00Z,30.4367,-88.0117,75.39,1111122 
DISL,ioos:station:DISL:MBLA:1,2015-08-05T05:00:00Z,30.4367,-88.0117,74.13,1111122 
DISL,ioos:station:DISL:MBLA:1,2015-08-05T05:30:00Z,30.4367,-88.0117,74.47,1111122 
DISL,ioos:station:DISL:MBLA:1,2015-08-05T06:00:00Z,30.4367,-88.0117,73.52,1111122 
DISL,ioos:station:DISL:MBLA:1,2015-08-05T06:30:00Z,30.4367,-88.0117,76.03,1111122 
DISL,ioos:station:DISL:MBLA:1,2015-08-05T07:00:00Z,30.4367,-88.0117,71.08,1111122 
DISL,ioos:station:DISL:MBLA:1,2015-08-05T07:30:00Z,30.4367,-88.0117,76.2,1111122 
DISL,ioos:station:DISL:MBLA:1,2015-08-05T08:00:00Z,30.4367,-88.0117,79.76,1111122 
DISL,ioos:station:DISL:MBLA:1,2015-08-05T08:30:00Z,30.4367,-88.0117,79.82,1111122 
DISL,ioos:station:DISL:MBLA:1,2015-08-05T09:00:00Z,30.4367,-88.0117,100.0,1111122 
DISL,ioos:station:DISL:MBLA:1,2015-08-05T09:30:00Z,30.4367,-88.0117,100.0,1111122 
DISL,ioos:station:DISL:MBLA:1,2015-08-05T10:00:00Z,30.4367,-88.0117,100.0,1111122 
DISL,ioos:station:DISL:MBLA:1,2015-08-05T10:30:00Z,30.4367,-88.0117,96.9,1111122 
DISL,ioos:station:DISL:MBLA:1,2015-08-05T11:00:00Z,30.4367,-88.0117,97.8,1111122 
DISL,ioos:station:DISL:MBLA:1,2015-08-05T11:30:00Z,30.4367,-88.0117,99.1,1111122 
DISL,ioos:station:DISL:MBLA:1,2015-08-05T12:00:00Z,30.4367,-88.0117,86.5,1111122 
DISL,ioos:station:DISL:MBLA:1,2015-08-05T12:30:00Z,30.4367,-88.0117,96.4,1111122 
DISL,ioos:station:DISL:MBLA:1,2015-08-05T13:00:00Z,30.4367,-88.0117,100.0,1111122 
DISL,ioos:station:DISL:MBLA:1,2015-08-05T16:30:00Z,30.4367,-88.0117,100.0,1111122 
DISL,ioos:station:DISL:MBLA:1,2015-08-05T17:00:00Z,30.4367,-88.0117,86.9,1111122 
DISL,ioos:station:DISL:MBLA:1,2015-08-05T17:30:00Z,30.4367,-88.0117,85.1,1111122 
DISL,ioos:station:DISL:MBLA:1,2015-08-05T18:00:00Z,30.4367,-88.0117,85.0,1111122 
DISL,ioos:station:DISL:MBLA:1,2015-08-05T18:30:00Z,30.4367,-88.0117,82.0,1111122 
DISL,ioos:station:DISL:MBLA:1,2015-08-05T19:00:00Z,30.4367,-88.0117,81.8,1111122 
DISL,ioos:station:DISL:MBLA:1,2015-08-05T19:30:00Z,30.4367,-88.0117,81.3,1111122 
DISL,ioos:station:DISL:MBLA:1,2015-08-05T20:00:00Z,30.4367,-88.0117,87.3,1111122 
DISL,ioos:station:DISL:MBLA:1,2015-08-05T20:30:00Z,30.4367,-88.0117,84.2,1111122 
DISL,ioos:station:DISL:MBLA:1,2015-08-05T21:00:00Z,30.4367,-88.0117,81.7,1111122 
DISL,ioos:station:DISL:MBLA:1,2015-08-05T21:30:00Z,30.4367,-88.0117,84.1,1111122 
DISL,ioos:station:DISL:MBLA:1,2015-08-05T22:00:00Z,30.4367,-88.0117,83.0,1111122 
DISL,ioos:station:DISL:MBLA:1,2015-08-05T22:30:00Z,30.4367,-88.0117,80.8,1111122 
DISL,ioos:station:DISL:MBLA:1,2015-08-05T23:00:00Z,30.4367,-88.0117,84.1,1111122 
DISL,ioos:station:DISL:MBLA:1,2015-08-05T23:30:00Z,30.4367,-88.0117,81.2,1111122 
DISL,ioos:station:DISL:MBLA:1,2015-08-06T00:00:00Z,30.4367,-88.0117,82.0,1111122 
DISL,ioos:station:DISL:MBLA:1,2015-08-06T00:30:00Z,30.4367,-88.0117,83.0,1111122 
DISL,ioos:station:DISL:MBLA:1,2015-08-06T01:00:00Z,30.4367,-88.0117,82.7,1111122 
DISL,ioos:station:DISL:MBLA:1,2015-08-06T01:30:00Z,30.4367,-88.0117,84.6,1111122 
DISL,ioos:station:DISL:MBLA:1,2015-08-06T02:00:00Z,30.4367,-88.0117,80.3,1111122 
DISL,ioos:station:DISL:MBLA:1,2015-08-06T02:30:00Z,30.4367,-88.0117,79.62,1111122 
DISL,ioos:station:DISL:MBLA:1,2015-08-06T03:00:00Z,30.4367,-88.0117,79.35,1111122 
DISL,ioos:station:DISL:MBLA:1,2015-08-06T03:30:00Z,30.4367,-88.0117,81.1,1111122 
DISL,ioos:station:DISL:MBLA:1,2015-08-06T04:00:00Z,30.4367,-88.0117,80.8,1111122 
DISL,ioos:station:DISL:MBLA:1,2015-08-06T04:30:00Z,30.4367,-88.0117,82.5,1111122 
DISL,ioos:station:DISL:MBLA:1,2015-08-06T05:00:00Z,30.4367,-88.0117,81.5,1111122 
DISL,ioos:station:DISL:MBLA:1,2015-08-06T05:30:00Z,30.4367,-88.0117,80.8,1111122 
DISL,ioos:station:DISL:MBLA:1,2015-08-06T06:00:00Z,30.4367,-88.0117,82.6,1111122 
DISL,ioos:station:DISL:MBLA:1,2015-08-06T06:30:00Z,30.4367,-88.0117,84.6,1111122 
DISL,ioos:station:DISL:MBLA:1,2015-08-06T07:00:00Z,30.4367,-88.0117,83.0,1111122 
DISL,ioos:station:DISL:MBLA:1,2015-08-06T07:30:00Z,30.4367,-88.0117,83.0,1111122 
DISL,ioos:station:DISL:MBLA:1,2015-08-06T08:00:00Z,30.4367,-88.0117,83.4,1111122 
DISL,ioos:station:DISL:MBLA:1,2015-08-06T08:30:00Z,30.4367,-88.0117,81.5,1111122 
DISL,ioos:station:DISL:MBLA:1,2015-08-06T09:00:00Z,30.4367,-88.0117,79.79,1111122 
DISL,ioos:station:DISL:MBLA:1,2015-08-06T09:30:00Z,30.4367,-88.0117,82.9,1111122 
DISL,ioos:station:DISL:MBLA:1,2015-08-06T10:00:00Z,30.4367,-88.0117,84.3,1111122 
DISL,ioos:station:DISL:MBLA:1,2015-08-06T10:30:00Z,30.4367,-88.0117,87.6,1111122 
DISL,ioos:station:DISL:MBLA:1,2015-08-06T11:00:00Z,30.4367,-88.0117,87.4,1111122 
DISL,ioos:station:DISL:MBLA:1,2015-08-06T11:30:00Z,30.4367,-88.0117,87.8,1111122 
DISL,ioos:station:DISL:MBLA:1,2015-08-06T12:00:00Z,30.4367,-88.0117,85.4,1111122 
DISL,ioos:station:DISL:MBLA:1,2015-08-06T12:30:00Z,30.4367,-88.0117,82.5,1111122 
DISL,ioos:station:DISL:MBLA:1,2015-08-06T13:00:00Z,30.4367,-88.0117,80.3,1111122 
DISL,ioos:station:DISL:MBLA:1,2015-08-06T13:30:00Z,30.4367,-88.0117,75.79,1111122 
DISL,ioos:station:DISL:MBLA:1,2015-08-06T14:00:00Z,30.4367,-88.0117,71.76,1111122 
DISL,ioos:station:DISL:MBLA:1,2015-08-06T14:30:00Z,30.4367,-88.0117,76.94,1111122 
DISL,ioos:station:DISL:MBLA:1,2015-08-06T15:00:00Z,30.4367,-88.0117,78.88,1111122 
DISL,ioos:station:DISL:MBLA:1,2015-08-06T15:30:00Z,30.4367,-88.0117,79.08,1111122 
DISL,ioos:station:DISL:MBLA:1,2015-08-06T16:00:00Z,30.4367,-88.0117,76.74,1111122 
DISL,ioos:station:DISL:MBLA:1,2015-08-06T16:30:00Z,30.4367,-88.0117,68.64,1111122 
DISL,ioos:station:DISL:MBLA:1,2015-08-06T17:00:00Z,30.4367,-88.0117,78.54,1111122 
DISL,ioos:station:DISL:MBLA:1,2015-08-06T17:30:00Z,30.4367,-88.0117,81.6,1111122 
DISL,ioos:station:DISL:MBLA:1,2015-08-06T18:00:00Z,30.4367,-88.0117,77.86,1111122 
DISL,ioos:station:DISL:MBLA:1,2015-08-06T18:30:00Z,30.4367,-88.0117,79.59,1111122 
DISL,ioos:station:DISL:MBLA:1,2015-08-06T19:00:00Z,30.4367,-88.0117,79.75,1111122 
DISL,ioos:station:DISL:MBLA:1,2015-08-06T19:30:00Z,30.4367,-88.0117,77.14,1111122 
DISL,ioos:station:DISL:MBLA:1,2015-08-06T20:00:00Z,30.4367,-88.0117,76.84,1111122 
DISL,ioos:station:DISL:MBLA:1,2015-08-06T20:30:00Z,30.4367,-88.0117,78.19,1111122 
DISL,ioos:station:DISL:MBLA:1,2015-08-06T21:00:00Z,30.4367,-88.0117,76.36,1111122 
DISL,ioos:station:DISL:MBLA:1,2015-08-06T21:30:00Z,30.4367,-88.0117,75.58,1111122 
DISL,ioos:station:DISL:MBLA:1,2015-08-06T22:00:00Z,30.4367,-88.0117,72.93,1111122 
DISL,ioos:station:DISL:MBLA:1,2015-08-06T22:30:00Z,30.4367,-88.0117,73.85,1111122 
DISL,ioos:station:DISL:MBLA:1,2015-08-06T23:00:00Z,30.4367,-88.0117,78.8,1111122 
DISL,ioos:station:DISL:MBLA:1,2015-08-06T23:30:00Z,30.4367,-88.0117,75.22,1111122 
DISL,ioos:station:DISL:MBLA:1,2015-08-07T00:00:00Z,30.4367,-88.0117,75.42,1111122 
DISL,ioos:station:DISL:MBLA:1,2015-08-07T00:30:00Z,30.4367,-88.0117,79.69,1111122 
DISL,ioos:station:DISL:MBLA:1,2015-08-07T01:00:00Z,30.4367,-88.0117,78.74,1111122 
DISL,ioos:station:DISL:MBLA:1,2015-08-07T01:30:00Z,30.4367,-88.0117,78.47,1111122 
DISL,ioos:station:DISL:MBLA:1,2015-08-07T02:00:00Z,30.4367,-88.0117,80.8,1111122 
DISL,ioos:station:DISL:MBLA:1,2015-08-07T02:30:00Z,30.4367,-88.0117,80.4,1111122 
DISL,ioos:station:DISL:MBLA:1,2015-08-07T03:00:00Z,30.4367,-88.0117,81.5,1111122 